Bennington, VT

1:04 PM EDT on July 26, 2017 (GMT -0400)
Morse State

Weather History for KDDH - September, 2013

Change the Weather History Date:

Thursday, September 19, 2013

  Actual Average Record
Temperature  
Mean Temperature 57 °F 58 °F  
Max Temperature 75 °F 69 °F 80 °F (2003)
Min Temperature 39 °F 46 °F 35 °F (2014)
Degree Days  
Heating Degree Days 8 8  
Month to date heating degree days 139 96  
Since 1 July heating degree days 202 168  
Cooling Degree Days 0 0  
Month to date cooling degree days 44 22  
Year to date cooling degree days 503 310  
Growing Degree Days 6 (Base 50)    
Moisture  
Dew Point 45 °F    
Average Humidity 71    
Maximum Humidity 100    
Minimum Humidity 41    
Precipitation  
Precipitation T in 0.12 in 0.94 in (2016)
Month to date precipitation 3.34 2.11  
Year to date precipitation 35.06 29.65  
Sea Level Pressure  
Sea Level Pressure 30.13 in    
Wind  
Wind Speed 1 mph (WSW)    
Max Wind Speed 7 mph    
Max Gust Speed 23 mph    
Visibility 7 miles    
Events      
T = Trace of Precipitation, MM = Missing Value Source: NWS Daily Summary

Daily Weather History Graph

Daily Weather History Graph

Search for Another Location

Airport or City:

Trip Planner

Search our weather history database for the weather conditions in past years. The results will help you decide how hot, cold, wet, or windy it might be!

Date:

Astronomy

Sep. 19, 2013 Rise Set
Actual Time 6:37 AM EDT 6:55 PM EDT
Civil Twilight 6:08 AM EDT 7:23 PM EDT
Nautical Twilight 5:35 AM EDT 7:56 PM EDT
Astronomical Twilight 5:01 AM EDT 8:30 PM EDT
Moon 6:50 PM EDT (9/19) 6:44 AM EDT (9/19)
Length of Visible Light 13h 14m
Length of Day
12h 18m
Full, 100% of the Moon is Illuminated
Sep 19
Full
Sep 26
Last Quarter
Oct 4
New
Oct 11
First Quarter
Oct 18
Full

Hourly Weather History & Observations

Time (EDT) Temp. Dew Point Humidity Pressure Visibility Wind Dir Wind Speed Gust Speed Precip Events Conditions
12:54 AM 46.0 °F 44.1 °F 93% 30.17 in 10.0 mi Calm Calm - N/A   Clear
1:54 AM 44.1 °F 42.1 °F 93% 30.18 in 7.0 mi Calm Calm - N/A   Clear
2:46 AM 42.8 °F 41.0 °F 93% 30.17 in 1.5 mi Calm Calm - N/A   Clear
2:54 AM 43.0 °F 41.0 °F 93% 30.18 in 1.2 mi Calm Calm - N/A   Clear
2:59 AM 42.8 °F 39.2 °F 87% 30.17 in 3.0 mi Calm Calm - N/A   Clear
3:54 AM 42.1 °F 39.9 °F 92% 30.17 in 6.0 mi Calm Calm - N/A   Clear
4:03 AM 41.0 °F 39.2 °F 93% 30.16 in 1.5 mi Calm Calm - N/A   Clear
4:07 AM 41.0 °F 39.2 °F 93% 30.16 in 5.0 mi Calm Calm - N/A   Clear
4:26 AM 42.8 °F 39.2 °F 87% 30.16 in 10.0 mi Calm Calm - N/A   Partly Cloudy
4:54 AM 39.9 °F 37.9 °F 93% 30.17 in 8.0 mi Calm Calm - N/A   Clear
5:54 AM 39.0 °F 37.9 °F 96% 30.17 in 10.0 mi Calm Calm - N/A   Clear
6:33 AM 39.2 °F 37.4 °F 93% 30.17 in 5.0 mi Calm Calm - N/A   Scattered Clouds
6:54 AM 39.9 °F 37.9 °F 93% 30.19 in 4.0 mi Calm Calm - N/A   Mostly Cloudy
7:11 AM 39.2 °F 37.4 °F 93% 30.18 in 10.0 mi Calm Calm - N/A   Scattered Clouds
7:54 AM 46.0 °F 43.0 °F 89% 30.18 in 10.0 mi Calm Calm - N/A   Clear
8:54 AM 54.0 °F 48.9 °F 83% 30.17 in 10.0 mi Calm Calm - 0.00 in   Clear
9:54 AM 61.0 °F 51.1 °F 70% 30.17 in 10.0 mi Calm Calm - N/A   Clear
10:54 AM 64.9 °F 50.0 °F 58% 30.16 in 10.0 mi Variable 4.6 mph - N/A   Clear
11:54 AM 68.0 °F 48.0 °F 49% 30.15 in 10.0 mi Calm Calm - N/A   Clear
12:54 PM 70.0 °F 50.0 °F 49% 30.13 in 10.0 mi SSE 4.6 mph - N/A   Clear
1:54 PM 73.0 °F 51.1 °F 46% 30.11 in 10.0 mi SSW 3.5 mph - N/A   Clear
2:54 PM 73.0 °F 48.0 °F 41% 30.09 in 10.0 mi Variable 3.5 mph - N/A   Clear
3:54 PM 73.9 °F 48.0 °F 40% 30.07 in 10.0 mi WNW 4.6 mph - N/A   Clear
4:54 PM 73.0 °F 51.1 °F 46% 30.07 in 10.0 mi NW 4.6 mph - N/A   Clear
5:54 PM 70.0 °F 54.0 °F 57% 30.07 in 10.0 mi Calm Calm - N/A   Clear
6:54 PM 57.9 °F 54.0 °F 87% 30.08 in 10.0 mi Calm Calm - N/A   Clear
7:54 PM 55.9 °F 53.1 °F 90% 30.09 in 10.0 mi Calm Calm - N/A   Clear
8:54 PM 53.1 °F 48.9 °F 86% 30.10 in 10.0 mi Calm Calm - N/A   Clear
9:54 PM 51.1 °F 48.9 °F 92% 30.09 in 10.0 mi Calm Calm - N/A   Clear
10:31 PM 51.8 °F 48.2 °F 88% 30.09 in 1.8 mi Calm Calm - N/A   Clear
10:40 PM 50.0 °F 48.2 °F 94% 30.09 in 3.0 mi Calm Calm - N/A   Clear
10:54 PM 48.9 °F 48.0 °F 97% 30.09 in 5.0 mi Calm Calm - N/A   Clear
11:29 PM 48.2 °F 46.4 °F 93% 30.09 in 2.0 mi Calm Calm - N/A   Clear
11:39 PM 48.2 °F 46.4 °F 93% 30.09 in 8.0 mi Calm Calm - N/A   Clear
11:54 PM 48.0 °F 46.9 °F 96% 30.09 in 3.0 mi Calm Calm - N/A   Clear